{"data":{"norad_id":68993,"intl_designator":"2026-100P","name":"YAM-13","alt_names":[],"object_type":"PAYLOAD","status":"ACTIVE","operator":null,"country":"US","launch_date":"2026-05-03","launch_site_code":"AFWTR","launch_vehicle":null,"mission":null,"orbit_class":"UNKNOWN","rcs_meters":null,"size_class":null,"mass_kg":null,"dimensions":null,"purposes":[],"wikipedia_slug":null,"has_3d_model":false,"image_url":null,"decayed_at":null,"tle_current":{"epoch":"2026-05-25T03:14:56.083776Z","epoch_age_seconds":70103,"freshness":"FRESH","line1":"1 68993U 26100P   26145.13537134  .00001530  00000+0  15763-3 0  9992","line2":"2 68993  97.7393  43.0175 0002483 188.9284 171.1890 14.91683011  3264","mean_motion":14.91683011,"eccentricity":0.0002483,"inclination_deg":97.7393,"raan_deg":43.0175,"arg_perigee_deg":188.9284,"mean_anomaly_deg":171.189,"bstar":0.00015763,"rev_number":326,"period_min":96.535255103204,"perigee_km":590.95659178856,"apogee_km":594.41830320919,"semimajor_km":6970.8244474989,"source":"CELESTRAK","updated_at":"2026-05-25T13:38:08.809854Z"}}}